Location: Audrecelles
(50.8240°N, 1.5923°E)
Time: 03:11:37
(UTC+00:00)

Cosmos 44 - Pass Details

Date: 19 October 2025
Orbit: 576 x 774 km, 65.1° (Epoch: 13 November)

Event Time Altitude Azimuth Distance (km) Brightness Sun altitude
Exits shadow 04:59:02 - 318° (NW) 2,303 5.6 -14.0°
Reaches altitude 10° 04:59:18 10° 317° (NW) 2,205 5.5 -14.0°
Maximum altitude 05:04:22 79° 232° (SW) 762 3.4 -13.2°
Drops below altitude 10° 05:09:38 10° 147° (SSE) 2,291 6.4 -12.4°
Sets 05:12:04 0° 146° (SE) 3,227 7.3 -12.0°
